Temperature
-4 -3 -3 -2 -1 1 2 4 5 6 7 8 9 9 10 10 11 11 11 12 12 12 12 12 12 12 12 12 12 12 11 11 10 10 10 11 11 11
-4 -3 -2 -1 0 1 2 3 4 4 6 7 8 9 9 10 10 10 10 11 11 11 12 12 12 12 11 12 12 11 10 10 10 9 9 10 10 10
-5 -4 -2 -1 0 1 2 3 3 4 5 6 7 7 8 9 9 9 9 9 10 10 11 11 11 11 11 10 10 10 10 10 10 8 9 9 9 9
-6 -4 -2 -1 -0 0 1 2 3 3 4 5 6 6 7 8 8 9 8 8 9 9 9 9 9 9 9 9 9 9 9 8 8 8 8 8 8 8
-6 -5 -4 -2 -1 -1 0 1 2 3 3 4 5 5 7 7 7 7 7 7 8 8 8 8 8 8 8 8 8 8 7 7 7 8 8 8 7 7
-6 -5 -4 -4 -2 -2 -1 0 1 2 3 4 4 4 6 7 6 6 6 6 6 6 6 7 7 7 7 8 7 7 7 7 7 7 7 7 7 7
-7 -6 -5 -5 -4 -2 -1 -0 0 1 2 3 4 4 5 6 5 5 6 5 5 5 6 6 6 6 6 6 6 6 6 6 6 6 6 6 6 6
-7 -7 -6 -5 -4 -3 -3 -2 -0 0 1 1 3 4 4 5 5 5 5 6 5 4 5 4 5 5 5 6 6 6 6 6 6 5 5 5 5 5
-8 -8 -8 -7 -5 -4 -4 -3 -2 -1 -0 0 1 1 2 4 4 5 5 6 5 4 5 4 4 3 4 4 5 5 5 5 5 5 5 5 5 4
-8 -9 -8 -8 -7 -6 -5 -4 -4 -4 -3 -2 -1 -1 -0 1 3 3 4 5 4 4 4 3 3 3 3 4 3 3 4 4 4 4 4 4 4 4
-9 -9 -9 -9 -8 -7 -7 -6 -6 -6 -5 -4 -3 -1 0 1 1 2 3 3 3 3 3 3 2 2 2 2 2 2 3 3 3 3 3 3 3 3
-10 -10 -10 -10 -9 -9 -8 -8 -7 -7 -6 -5 -5 -3 -2 -1 -0 0 1 2 3 2 2 2 2 2 1 1 2 2 2 2 2 3 2 2 2 2
-10 -11 -10 -10 -10 -10 -10 -10 -10 -9 -8 -7 -6 -6 -5 -4 -3 -2 -1 0 1 1 0 1 1 1 1 -0 -0 0 1 1 1 1 1 1 1 1
-11 -12 -12 -12 -11 -11 -10 -11 -10 -11 -10 -10 -9 -8 -7 -7 -7 -6 -4 -3 -2 -2 -1 -1 -1 -0 -0 -0 -1 -1 -1 -0 0 -0 0 0 -0 0
-13 -13 -13 -12 -12 -11 -11 -11 -11 -11 -11 -11 -11 -11 -10 -10 -9 -9 -7 -6 -5 -4 -4 -3 -2 -2 -2 -2 -2 -2 -2 -2 -2 -2 -1 -1 -1 -1
-13 -14 -13 -13 -13 -13 -12 -12 -12 -13 -12 -13 -12 -12 -11 -10 -9 -9 -9 -8 -7 -6 -5 -5 -4 -4 -5 -5 -5 -5 -5 -5 -4 -4 -3 -2 -2 -2
-14 -14 -14 -14 -14 -14 -14 -13 -13 -13 -13 -13 -13 -13 -12 -11 -10 -10 -10 -10 -9 -9 -8 -8 -7 -6 -6 -6 -7 -7 -6 -6 -5 -4 -3 -3 -2 -2
-15 -15 -15 -15 -15 -15 -15 -15 -15 -14 -14 -14 -13 -13 -12 -12 -11 -11 -10 -10 -10 -9 -9 -8 -8 -7 -7 -7 -7 -8 -7 -7 -6 -5 -5 -4 -4 -5
-15 -15 -16 -16 -16 -16 -16 -16 -16 -15 -15 -15 -14 -14 -13 -13 -12 -12 -11 -12 -11 -10 -10 -9 -9 -9 -9 -9 -9 -8 -9 -8 -8 -7 -7 -7 -6 -6
-15 -15 -16 -16 -16 -16 -16 -16 -16 -16 -16 -16 -16 -15 -14 -14 -14 -13 -13 -13 -13 -12 -11 -11 -10 -10 -11 -11 -11 -10 -9 -9 -9 -9 -9 -8 -7 -6
-15 -15 -16 -16 -16 -16 -16 -16 -16 -16 -16 -16 -16 -15 -15 -15 -14 -14 -14 -14 -14 -13 -13 -13 -12 -11 -11 -11 -11 -11 -11 -10 -10 -9 -9 -8 -8 -7
-15 -15 -15 -16 -16 -16 -15 -16 -16 -16 -16 -16 -16 -15 -15 -15 -15 -15 -15 -14 -15 -14 -14 -14 -13 -13 -12 -12 -12 -12 -11 -11 -11 -10 -10 -10 -10 -9
-15 -15 -15 -15 -15 -15 -15 -15 -15 -16 -16 -16 -16 -15 -15 -15 -15 -15 -15 -15 -15 -14 -14 -14 -14 -14 -13 -14 -13 -13 -12 -12 -12 -12 -11 -11 -10 -10
Wind_Speed
15 16 15 15 15 12 12 10 9 9 12 13 10 8 6 6 9 12 13 13 16 17 20 23 23 23 25 25 24 23 28 27 19 16 18 21 19 17
14 15 17 16 13 9 11 12 12 13 9 7 7 6 7 5 6 10 10 12 13 15 17 22 28 32 32 30 31 29 27 28 27 19 18 20 20 18
15 16 18 16 9 6 8 11 12 12 11 8 6 7 7 7 5 4 8 8 11 16 17 20 27 31 31 30 29 30 30 26 26 21 20 20 20 18
16 15 15 11 11 7 6 10 12 12 11 10 7 8 8 8 10 10 6 8 9 16 20 19 21 25 29 29 28 28 28 27 25 21 18 18 19 18
15 14 13 15 13 10 6 8 9 8 10 9 8 9 7 7 9 10 7 8 11 15 18 18 21 21 23 26 26 25 24 23 21 21 19 17 16 15
15 15 14 15 15 12 7 9 11 9 7 7 9 12 10 7 10 11 9 7 10 12 13 15 16 19 20 21 21 23 22 22 20 18 17 16 15 13
14 14 14 17 21 15 4 6 8 7 2 5 8 10 11 11 11 10 11 10 6 6 10 10 11 12 14 17 18 20 22 21 19 19 17 17 16 14
12 13 14 16 19 24 26 22 15 4 1 4 3 5 6 7 8 11 14 11 5 3 8 7 8 10 9 12 16 19 20 21 21 22 21 19 17 14
12 12 12 14 16 14 20 25 26 28 20 8 9 7 4 5 1 9 10 13 9 2 6 6 7 7 5 10 19 20 20 21 21 21 21 18 15 13
13 14 15 15 17 16 15 17 18 19 21 15 17 14 11 9 7 4 7 10 10 7 5 4 4 6 9 13 19 22 22 22 21 19 17 15 14 11
15 16 18 18 24 24 18 17 18 17 20 26 28 28 30 28 17 5 5 9 5 4 6 4 5 5 7 9 14 21 23 21 19 17 15 13 9 7
12 16 22 23 26 26 19 17 16 15 15 17 20 23 22 22 26 17 9 6 6 4 4 2 4 4 4 5 8 12 16 18 16 15 12 8 3 0
10 12 15 24 26 27 23 18 16 14 14 14 13 14 14 14 15 16 14 11 8 6 5 2 3 3 4 4 3 5 7 7 7 8 9 7 6 4
9 11 14 22 24 26 21 22 22 17 12 12 12 12 13 12 12 13 15 17 16 12 11 8 4 3 4 5 4 4 4 3 3 2 2 2 1 1
12 16 19 21 20 19 23 23 19 13 12 12 11 11 10 10 10 10 12 14 17 18 17 16 9 7 5 5 5 6 5 5 4 2 1 1 2 3
10 13 16 16 16 17 17 15 13 13 12 11 10 9 9 9 9 9 8 9 10 10 12 14 10 7 6 6 6 6 4 4 4 1 1 3 4 5
8 9 10 10 11 11 11 12 12 12 11 11 10 10 10 10 10 10 9 9 8 8 8 8 8 8 6 4 4 4 3 3 2 1 3 4 4 5
8 9 9 10 10 10 10 10 10 10 10 10 10 10 10 10 9 9 8 8 7 7 7 6 4 4 5 6 7 3 3 2 1 2 3 4 5 5
8 8 8 8 8 8 8 8 8 8 8 8 9 9 8 8 8 7 7 6 6 6 6 5 5 3 2 3 4 6 2 1 2 3 3 5 7 6
6 7 7 7 7 7 7 7 6 6 6 6 6 6 6 6 6 6 5 5 5 4 4 5 5 5 4 2 1 2 2 3 3 4 4 5 7 11
5 5 6 6 6 6 5 5 5 5 5 5 4 4 4 4 4 4 4 5 4 3 3 3 3 4 2 1 2 2 1 2 5 6 6 6 7 6
5 6 6 6 5 5 5 4 5 4 4 3 3 3 3 3 3 3 3 3 2 2 3 2 2 3 2 2 3 4 5 5 7 10 11 10 6 4
6 6 6 6 5 5 4 4 5 5 4 4 3 3 3 3 3 3 3 3 3 4 4 4 3 3 4 4 5 5 6 6 6 6 6 9 13 16
Wind_Direction
291 275 266 266 267 265 262 262 263 250 245 243 238 205 207 205 207 204 210 198 199 201 204 194 177 161 148 144 139 136 123 118 119 123 137 133 128 120
297 291 279 267 262 257 251 246 242 248 243 240 255 230 187 169 181 201 182 156 155 151 158 155 148 144 132 133 134 134 134 135 140 149 149 134 127 120
314 307 296 271 274 271 263 251 239 238 238 234 240 232 201 156 140 134 144 143 134 128 129 134 133 134 136 138 138 140 140 141 139 156 152 135 129 124
325 324 325 306 259 255 286 277 247 230 229 224 212 204 202 165 164 146 147 138 132 130 125 121 122 129 132 135 140 142 142 145 148 150 145 135 129 126
329 330 332 342 317 285 291 287 257 239 227 218 203 196 185 162 160 144 139 146 144 134 127 126 125 125 129 133 136 136 137 138 142 148 142 133 128 125
333 333 335 347 332 293 285 292 267 233 219 217 214 194 176 162 158 140 140 128 137 141 137 136 132 128 128 127 129 131 135 134 137 132 126 123 120 114
338 340 340 354 1 357 337 301 284 254 236 227 203 178 169 164 163 153 135 115 92 123 132 131 129 129 132 136 140 139 140 137 135 130 130 123 114 110
344 351 353 359 7 19 32 36 31 357 248 260 179 118 138 144 146 158 144 139 124 55 105 102 131 135 144 154 150 145 140 138 137 134 130 123 119 114
358 10 12 9 16 12 26 34 36 42 43 41 66 50 27 23 115 159 167 161 133 80 109 75 70 80 91 116 132 137 135 135 132 128 126 124 120 112
15 30 29 23 27 27 26 31 29 32 40 44 57 56 57 34 22 41 98 100 89 57 51 96 82 64 42 68 103 112 114 113 114 116 119 118 113 105
22 31 35 31 33 33 31 32 32 22 24 36 44 42 41 46 42 50 96 128 105 58 22 91 112 87 55 36 53 97 104 107 110 110 110 109 111 120
22 37 39 38 34 36 36 36 34 24 23 26 30 33 32 33 39 40 34 83 98 87 9 68 121 115 88 36 32 44 91 98 95 98 98 87 60 145
24 38 34 40 41 39 38 35 35 31 32 38 35 35 35 32 34 38 42 52 69 79 31 60 116 102 109 123 84 47 56 72 89 92 95 73 46 12
40 43 37 37 40 42 39 35 33 34 35 40 41 39 37 37 44 52 56 58 60 60 44 52 77 86 125 130 129 123 109 99 109 116 110 118 131 55
45 43 40 40 38 40 40 37 35 34 35 40 42 41 38 36 40 56 69 71 65 56 50 50 56 52 68 109 126 138 152 153 159 167 193 265 294 286
32 36 37 37 39 37 37 37 36 36 36 35 36 39 38 40 40 39 56 67 73 69 59 55 58 67 81 91 120 138 149 150 158 165 299 276 262 261
38 38 36 34 32 33 35 36 35 34 36 34 33 35 36 38 40 36 47 64 71 72 64 53 58 72 74 77 115 124 140 140 108 358 305 294 288 282
44 42 37 34 31 28 28 30 32 33 30 30 31 32 33 33 38 40 45 59 69 62 51 38 47 103 111 68 38 83 115 104 43 309 297 291 284 270
53 50 43 35 30 27 26 25 26 27 25 28 29 26 28 30 33 37 40 51 61 58 49 33 34 43 142 137 61 25 38 28 307 286 281 278 280 285
47 43 40 34 28 22 21 20 17 15 18 15 20 23 21 23 27 29 32 36 47 50 51 43 40 32 35 39 1 31 39 317 304 296 295 294 292 287
26 22 20 18 17 10 4 5 5 5 10 358 360 8 13 12 14 12 15 21 21 27 33 40 24 355 341 307 275 284 299 286 291 292 302 305 302 294
357 356 354 350 350 349 342 339 337 341 350 351 350 345 341 338 335 333 333 342 349 335 316 310 307 309 304 293 298 305 303 302 289 273 263 259 268 279
339 341 341 338 333 327 324 320 319 322 325 324 316 304 290 285 286 286 286 283 283 280 277 279 281 279 281 279 278 282 285 288 292 287 270 254 256 266
Height
1416 1413 1410 1409 1410 1410 1411 1412 1413 1412 1413 1416 1418 1418 1421 1422 1424 1426 1428 1431 1436 1440 1445 1450 1456 1462 1467 1473 1478 1484 1486 1493 1501 1509 1514 1511 1514 1517
1410 1407 1404 1403 1403 1403 1403 1405 1406 1405 1404 1409 1413 1413 1415 1417 1419 1421 1423 1426 1430 1434 1439 1443 1449 1455 1460 1466 1471 1477 1483 1490 1495 1507 1512 1507 1508 1511
1405 1400 1397 1397 1396 1396 1396 1397 1399 1399 1396 1401 1406 1408 1409 1411 1414 1416 1419 1423 1427 1431 1435 1439 1443 1449 1455 1461 1466 1471 1477 1486 1487 1503 1507 1503 1503 1508
1400 1394 1391 1390 1391 1390 1390 1390 1390 1391 1392 1394 1399 1401 1403 1406 1409 1411 1415 1421 1425 1430 1434 1439 1442 1447 1452 1458 1463 1469 1474 1481 1488 1497 1500 1499 1501 1505
1399 1393 1388 1385 1384 1384 1383 1383 1384 1384 1385 1388 1392 1395 1397 1400 1404 1407 1412 1418 1424 1428 1432 1438 1444 1446 1451 1456 1463 1469 1476 1480 1488 1494 1494 1496 1499 1503
1396 1390 1384 1378 1376 1377 1377 1378 1378 1379 1379 1379 1384 1390 1392 1394 1399 1402 1408 1415 1421 1425 1430 1437 1442 1447 1452 1457 1462 1467 1475 1480 1487 1489 1491 1494 1498 1501
1395 1390 1384 1379 1374 1372 1372 1371 1371 1373 1373 1373 1377 1381 1383 1388 1394 1398 1404 1410 1420 1425 1430 1436 1441 1446 1451 1457 1462 1467 1474 1478 1483 1485 1491 1493 1496 1500
1395 1390 1384 1380 1375 1369 1366 1364 1365 1366 1367 1372 1371 1373 1378 1383 1387 1395 1401 1409 1417 1423 1427 1433 1440 1445 1452 1457 1461 1466 1472 1477 1481 1485 1489 1492 1495 1498
1397 1392 1387 1382 1378 1373 1368 1365 1363 1362 1365 1368 1364 1368 1372 1376 1384 1391 1399 1405 1411 1418 1425 1430 1436 1442 1450 1455 1460 1464 1470 1474 1478 1482 1486 1489 1491 1493
1399 1396 1390 1386 1382 1377 1373 1369 1365 1364 1365 1364 1359 1366 1369 1374 1379 1385 1392 1398 1405 1413 1421 1428 1434 1439 1445 1452 1458 1463 1468 1472 1475 1479 1482 1484 1486 1489
1403 1400 1395 1391 1386 1381 1377 1373 1369 1369 1367 1363 1359 1361 1364 1372 1380 1387 1392 1396 1402 1410 1418 1425 1432 1437 1443 1449 1454 1460 1464 1468 1472 1475 1478 1480 1483 1485
1407 1405 1401 1396 1392 1386 1383 1381 1378 1377 1375 1372 1369 1369 1372 1376 1380 1384 1388 1394 1401 1409 1416 1420 1426 1433 1440 1445 1449 1453 1457 1462 1467 1471 1474 1477 1480 1482
1410 1408 1406 1401 1396 1392 1388 1387 1386 1384 1381 1380 1380 1379 1380 1380 1382 1385 1390 1395 1401 1406 1411 1416 1422 1429 1435 1441 1447 1451 1455 1459 1463 1466 1469 1472 1475 1478
1413 1411 1409 1405 1402 1398 1395 1393 1390 1389 1388 1386 1386 1385 1386 1387 1388 1391 1394 1397 1400 1405 1410 1415 1419 1426 1432 1437 1443 1448 1452 1456 1459 1462 1465 1467 1470 1472
1416 1414 1411 1408 1406 1404 1402 1400 1398 1397 1396 1396 1396 1395 1395 1396 1397 1397 1399 1401 1404 1408 1412 1416 1421 1425 1431 1435 1439 1444 1449 1452 1455 1457 1460 1462 1464 1465
1419 1417 1415 1413 1411 1409 1407 1406 1404 1403 1402 1403 1403 1402 1402 1402 1402 1403 1404 1404 1408 1412 1416 1419 1424 1428 1431 1433 1437 1441 1445 1449 1451 1453 1455 1457 1458 1459
1423 1421 1419 1417 1415 1414 1412 1411 1410 1409 1408 1408 1408 1406 1404 1404 1403 1405 1407 1409 1414 1418 1421 1423 1425 1428 1431 1434 1437 1439 1443 1446 1447 1449 1452 1452 1453 1453
1426 1425 1423 1421 1420 1418 1416 1415 1413 1412 1411 1410 1409 1407 1406 1407 1408 1410 1412 1414 1417 1419 1421 1424 1427 1429 1432 1435 1437 1439 1441 1442 1443 1445 1446 1447 1448 1448
1430 1428 1427 1425 1424 1423 1421 1419 1417 1416 1415 1413 1412 1411 1412 1413 1413 1414 1416 1418 1419 1421 1424 1426 1428 1430 1433 1435 1436 1438 1439 1439 1441 1442 1442 1443 1443 1443
1433 1433 1431 1430 1428 1427 1425 1423 1421 1420 1419 1419 1418 1417 1416 1416 1417 1418 1420 1420 1421 1423 1424 1426 1428 1430 1432 1434 1435 1436 1436 1437 1438 1439 1439 1438 1438 1438
1437 1436 1434 1433 1431 1429 1427 1426 1425 1424 1422 1421 1420 1419 1418 1418 1419 1420 1421 1422 1422 1423 1425 1426 1428 1430 1430 1432 1433 1433 1433 1434 1434 1434 1434 1433 1433 1434
1439 1437 1435 1434 1432 1430 1428 1426 1425 1424 1423 1422 1421 1420 1420 1420 1421 1422 1422 1422 1423 1424 1426 1427 1427 1428 1428 1429 1430 1430 1430 1431 1430 1431 1431 1431 1431 1431
1440 1438 1436 1434 1432 1430 1428 1426 1425 1424 1423 1422 1422 1421 1422 1422 1422 1422 1422 1422 1423 1424 1426 1426 1426 1426 1426 1427 1427 1427 1428 1428 1428 1428 1428 1427 1426 1426